Hourly Data Report for June 26, 2021

CARIBOU POINT (AUT)
NOVA SCOTIA
Current Station Operator: ECCC - MSC

45°46'00.000" N
62°41'00.000" W
2.40 m
8200774
71415
WBK

Download Data

Hourly Data (June 2021)
Hourly Data Report for June 26, 2021
TIME
LST
Temp Definition
°C
Dew Point Definition
°C
Rel Hum Definition
%
Precip. Amount Definition
mm

Wind Dir Definition
10's deg

Wind Spd Definition
km/h
Visibility Definition
km
Stn Press Definition
kPa
Hmdx Definition


Wind Chill Definition


Weather Definition


00:00 17.7 15.2 86 0.0 20 23   102.64     LegendNANA
01:00 17.6 15.9 90 0.0 19 30   102.56     LegendNANA
02:00 17.8 16.3 91 0.0 20 22   102.55     LegendNANA
03:00 17.9 16.7 93 0.0 19 20   102.54     LegendNANA
04:00 18.1 17.0 94 0.0 20 18   102.53     LegendNANA
05:00 18.3 17.3 94 0.0 20 14   102.51     LegendNANA
06:00 18.9 17.7 93 0.0 20 15   102.53     LegendNANA
07:00 20.1 18.4 90 0.0 20 17   102.50 26   LegendNANA
08:00 20.9 18.4 85 0.2 21 10   102.52 27   LegendNANA
09:00 22.9 19.4 81 0.0 21 13   102.48 30   LegendNANA
10:00 23.4 20.0 81 0.0 20 11   102.46 31   LegendNANA
11:00 24.6 20.1 76 0.0 21 14   102.42 32   LegendNANA
12:00 25.1 19.6 72 0.0 22 17   102.36 32   LegendNANA
13:00 26.2 19.7 67 0.0 21 19   102.31 34   LegendNANA
14:00 26.9 19.9 65 0.0 23 22   102.25 34   LegendNANA
15:00 26.4 19.9 68 0.0 22 19   102.22 34   LegendNANA
16:00 26.9 19.8 65 0.0 22 22   102.21 34   LegendNANA
17:00 26.0 20.1 70 0.0 22 15   102.19 34   LegendNANA
18:00 25.5 20.1 72 0.0 22 16   102.21 33   LegendNANA
19:00 24.5 20.2 77 0.0 20 14   102.19 32   LegendNANA
20:00 22.7 19.4 82 0.0 21 14   102.22 30   LegendNANA
21:00 20.9 18.6 86 0.0 20 16   102.25 27   LegendNANA
22:00 19.9 18.1 89 0.0 19 17   102.23     LegendNANA
23:00 19.5 18.0 91 0.0 19 20   102.18     LegendNANA

Notes on Data Quality.

Legend

  • E = Estimated
  • M = Missing
  • NA = Not Available*
  • [empty] = Indicates an unobserved value
Date modified: